[[{"header":{"parameterUnit":"m.s-1","parameterCategory":2,"la1":30.2991,"la2":30.254,"lo1":-89.0895,"lo2":-89.0444,"dy":0.0017,"dx":0.0017,"nx":28,"ny":28,"refTime":"2024-03-05T03:00:00:Z","depth":"0","parameterNumber":2,"parameterNumberName":"U-component_of_CURRENTS"},"data":[0,0,0,0,0,0,0,0,0,0,0,0,0,0,0,0,0,0,0,0,0,0,0,0,0,0,0,0,0,0,0,0,0,0,0,0,0,0,0,0,0,0,0,0,0,0,0,0,0,0,0,0,0,0,0,0,0,0,-0.2128,-0.2129,0,-0.2153,-0.2153,-0.2153,-0.2134,-0.2134,-0.2133,-0.2133,-0.208,-0.2079,-0.2079,0,0,0,0,0,0,0,0,0,0,0,0,0,-0.2057,-0.2059,-0.2128,-0.2129,-0.2129,-0.2153,-0.2153,-0.2153,-0.2135,-0.2134,-0.2133,-0.2132,-0.208,-0.2079,-0.2079,0,0,0,0,0,0,0,0,0,0,0,0,0,-0.2084,-0.2059,-0.2128,-0.2124,-0.2124,-0.2153,-0.2153,-0.2153,-0.2135,-0.2134,-0.2133,-0.2132,-0.2081,-0.208,-0.2078,-0.2089,0,0,-0.2075,-0.2074,0,0,0,0,0,0,0,0,-0.2082,-0.2086,-0.2124,-0.2125,-0.2125,-0.2141,-0.2109,-0.2129,-0.2135,-0.2129,-0.2133,-0.2132,-0.2096,-0.2093,-0.2098,-0.2087,-0.2084,-0.2074,-0.2074,-0.2073,-0.2073,0,0,0,0,0,0,0,-0.208,-0.2085,-0.2136,-0.2125,-0.2125,-0.2119,-0.2121,-0.2113,-0.2114,-0.2129,-0.2128,-0.2135,-0.2095,-0.2099,-0.2096,-0.2084,-0.2075,-0.2073,-0.2073,-0.2072,-0.2089,-0.209,0,0,0,0,0,0,-0.2083,-0.2084,-0.2135,-0.2137,-0.2103,-0.2121,-0.2124,-0.2135,-0.2116,-0.2113,-0.2135,-0.2134,-0.2102,-0.2098,-0.2094,-0.2124,-0.2073,-0.2072,-0.2071,-0.2088,-0.2089,-0.2091,0,0,0,0,0,0,-0.2082,-0.2088,-0.2134,-0.2112,-0.2117,-0.2124,-0.2136,-0.2136,-0.2137,-0.2122,-0.2117,-0.2136,-0.2101,-0.2096,-0.2096,-0.2121,-0.2071,-0.207,-0.2087,-0.2088,-0.209,-0.2171,0,0,0,0,0,0,-0.208,-0.2087,-0.2091,-0.2112,-0.2119,-0.2156,-0.2138,-0.2138,-0.2144,-0.2141,-0.2121,-0.2115,-0.21,-0.2098,-0.2095,-0.2118,-0.2069,-0.2085,-0.2087,-0.209,-0.2167,-0.2176,-0.2183,0,0,0,0,0,-0.2077,-0.2089,-0.2092,-0.2098,-0.2126,-0.2157,-0.216,-0.2159,-0.2144,-0.2153,-0.2142,-0.2115,-0.211,-0.2098,-0.2094,-0.2118,-0.2084,-0.2087,-0.2089,-0.2164,-0.2174,-0.2183,0,0,0,0,0,0,-0.2057,-0.2089,-0.2092,-0.2112,-0.2135,-0.2154,-0.2158,-0.2161,-0.216,-0.2152,-0.213,-0.2125,-0.2135,-0.2115,-0.2103,-0.2129,-0.2093,-0.2095,-0.2151,-0.216,-0.2168,-0.2168,-0.2068,0,0,0,0,0,-0.2057,-0.2072,-0.2105,-0.2117,-0.213,-0.2144,-0.2152,-0.2159,-0.2165,-0.2164,-0.2152,-0.2142,-0.2146,-0.2142,-0.2137,-0.215,-0.2126,-0.2162,-0.217,-0.2177,-0.2175,-0.2172,-0.218,-0.21,-0.21,-0.21,0,0,-0.205,-0.207,-0.2076,-0.2114,-0.2125,-0.2163,-0.2146,-0.2166,-0.2197,-0.2158,-0.2179,-0.2166,-0.2155,-0.2175,-0.2177,-0.2159,-0.2188,-0.218,-0.2187,-0.218,-0.2176,-0.2184,-0.2191,-0.2101,-0.2101,-0.2101,0,0,-0.2055,-0.2064,-0.2086,-0.2114,-0.2147,-0.2166,-0.2174,-0.22,-0.2208,-0.2232,-0.2217,-0.2222,-0.2218,-0.2226,-0.2227,-0.2274,-0.223,-0.2268,-0.2309,-0.2308,-0.2314,-0.232,-0.2303,-0.2306,-0.2273,-0.2273,-0.2273,0,-0.2043,-0.2083,-0.2095,-0.2134,-0.216,-0.2171,-0.2212,-0.2232,-0.2255,-0.2264,-0.2245,-0.2258,-0.2247,-0.2283,-0.2301,-0.2293,-0.2273,-0.2276,-0.2318,-0.2323,-0.2327,-0.2308,-0.2311,-0.2277,-0.2277,-0.2276,-0.2276,0,-0.2077,-0.2112,-0.2127,-0.2183,-0.2213,-0.2246,-0.2287,-0.2308,-0.2312,-0.2328,-0.2351,-0.2344,-0.2345,-0.2354,-0.2341,-0.2374,-0.2344,-0.2329,-0.2295,-0.234,-0.2317,-0.2319,-0.2283,-0.2282,-0.2281,-0.2279,0,0,-0.2039,-0.2134,-0.2137,-0.2173,-0.2244,-0.2268,-0.2326,-0.2376,-0.2398,-0.2415,-0.2439,-0.2461,-0.2439,-0.2438,-0.2427,-0.2431,-0.2449,-0.2394,-0.2392,-0.2377,-0.2432,-0.2366,-0.2361,-0.2438,-0.2439,-0.2439,-0.2405,0,-0.2059,-0.2138,-0.2185,-0.2254,-0.2298,-0.234,-0.2393,-0.2436,-0.2455,-0.2478,-0.2482,-0.2493,-0.2478,-0.2472,-0.2481,-0.2451,-0.2455,-0.2459,-0.2388,-0.2386,-0.2323,-0.2361,-0.2298,-0.2258,-0.2406,-0.2406,-0.2406,0,-0.2075,-0.2129,-0.2205,-0.2295,-0.2316,-0.2359,-0.2423,-0.2469,-0.2516,-0.2529,-0.2545,-0.2536,-0.2553,-0.2523,-0.2511,-0.251,-0.2477,-0.2456,-0.2453,-0.2362,-0.2323,-0.2235,-0.2253,-0.2247,-0.2407,-0.2407,-0.2407,0,-0.2033,-0.2136,-0.2193,-0.2226,-0.2333,-0.2364,-0.2409,-0.2472,-0.2502,-0.2544,-0.2553,-0.2576,-0.2563,-0.2549,-0.2501,-0.2505,-0.2466,-0.2465,-0.2381,-0.2375,-0.229,-0.2276,-0.2292,-0.2456,-0.2456,-0.2456,-0.2456,0,-0.2035,-0.2075,-0.2173,-0.2203,-0.2256,-0.2335,-0.2383,-0.2432,-0.2491,-0.2521,-0.2557,-0.2567,-0.2565,-0.2541,-0.251,-0.2438,-0.2472,-0.2388,-0.2366,-0.2317,-0.2306,-0.2269,-0.2285,-0.2455,-0.2455,-0.2456,-0.2456,0,-0.1979,-0.2051,-0.2111,-0.2214,-0.2239,-0.2266,-0.2355,-0.239,-0.2453,-0.2487,-0.2498,-0.2545,-0.2519,-0.2501,-0.2464,-0.2428,-0.2341,-0.2344,-0.2277,-0.2246,-0.2167,-0.2189,-0.214,-0.2077,-0.2258,-0.2257,-0.2255,0,-0.196,-0.1987,-0.2083,-0.2109,-0.2152,-0.2207,-0.2252,-0.2347,-0.2389,-0.2466,-0.2477,-0.2476,-0.2457,-0.2383,-0.2328,-0.2261,-0.2258,-0.2165,-0.217,-0.2154,-0.2164,-0.2165,-0.2116,-0.2093,-0.209,-0.2088,-0.2086,0,-0.1907,-0.1936,-0.1982,-0.2033,-0.2078,-0.2125,-0.2194,-0.222,-0.2329,-0.2358,-0.2382,-0.2369,-0.2336,-0.2245,-0.2166,-0.2119,-0.2124,-0.2116,-0.2126,-0.2055,-0.2033,-0.1963,-0.2119,-0.2067,-0.2068,-0.207,-0.2071,-0.2072,-0.1841,-0.1849,-0.1898,-0.1935,-0.1983,-0.2003,-0.1998,-0.2085,-0.2107,-0.2134,-0.2222,-0.219,-0.2196,-0.2076,-0.2025,-0.1941,-0.1964,-0.1907,-0.1941,-0.1947,-0.1873,-0.1976,-0.1882,-0.1883,-0.1884,-0.1885,-0.1885,0,-0.1746,-0.1764,-0.1798,-0.1827,-0.1826,-0.1885,-0.1929,-0.1903,-0.1884,-0.1968,-0.1973,-0.1997,-0.1926,-0.1934,-0.1878,-0.1803,-0.1756,-0.1766,-0.1776,-0.1736,-0.1846,-0.1826,-0.1685,-0.1685,-0.1685,-0.1685,-0.1685,-0.1685,-0.1694,-0.1681,-0.1699,-0.1647,-0.1663,-0.16,-0.1587,-0.1572,-0.1602,-0.159,-0.1645,-0.1723,-0.1771,-0.1937,-0.1861,-0.1776,-0.1728,-0.1671,-0.1671,-0.1793,-0.181,-0.1826,-0.1811,-0.1669,-0.1669,-0.1504,-0.1503,-0.1503]},{"header":{"parameterUnit":"m.s-1","parameterCategory":2,"la1":30.2991,"la2":30.254,"lo1":-89.0895,"lo2":-89.0444,"dy":0.0017,"dx":0.0017,"nx":28,"ny":28,"refTime":"2024-03-05T03:00:00:Z","depth":"0","parameterNumber":3,"parameterNumberName":"V-component_of_CURRENTS"},"data":[0,0,0,0,0,0,0,0,0,0,0,0,0,0,0,0,0,0,0,0,0,0,0,0,0,0,0,0,0,0,0,0,0,0,0,0,0,0,0,0,0,0,0,0,0,0,0,0,0,0,0,0,0,0,0,0,0,0,-0.0108,-0.0108,0,-0.0032,-0.0031,-0.003,0.0023,0.0023,0.0023,0.0024,0.0134,0.0136,0.0139,0,0,0,0,0,0,0,0,0,0,0,0,0,-0.0161,-0.016,-0.0108,-0.0108,-0.0107,-0.0033,-0.0031,-0.003,0.0023,0.0023,0.0023,0.0024,0.0133,0.0136,0.0139,0,0,0,0,0,0,0,0,0,0,0,0,0,-0.0115,-0.016,-0.0108,-0.0073,-0.0069,-0.0033,-0.0031,-0.003,0.0023,0.0023,0.0023,0.0024,0.0132,0.0136,0.014,0.0158,0,0,0.0152,0.0154,0,0,0,0,0,0,0,0,-0.0118,-0.0113,-0.0079,-0.0075,-0.0071,-0.0016,-0.0009,0.0034,0.0023,-0.001,0.0024,0.0024,0.0085,0.0093,0.0109,0.0163,0.0168,0.0152,0.0155,0.0157,0.0158,0,0,0,0,0,0,0,-0.0121,-0.0116,-0.0076,-0.0078,-0.0073,-0.0045,-0.0038,-0.0001,0.0037,-0.0007,-0.0004,0.0002,0.0088,0.0105,0.0112,0.0169,0.0152,0.0156,0.0158,0.016,0.0263,0.0264,0,0,0,0,0,0,-0.0137,-0.0119,-0.0079,-0.0074,-0.0096,-0.0045,-0.0037,-0.0032,0.0036,0.0046,0.0001,0.0004,0.0098,0.0107,0.0116,0.0151,0.0157,0.016,0.0163,0.0263,0.0263,0.0264,0,0,0,0,0,0,-0.0138,-0.0134,-0.0082,-0.0096,-0.0088,-0.0045,-0.0039,-0.0031,-0.0015,0.0041,0.0053,0.0008,0.0098,0.011,0.0152,0.0155,0.0162,0.0166,0.0263,0.0263,0.0263,0.0214,0,0,0,0,0,0,-0.014,-0.0135,-0.0139,-0.0098,-0.0088,-0.0069,-0.0039,-0.003,-0.0013,-0.0009,0.0051,0.0062,0.01,0.0146,0.0156,0.0161,0.0169,0.0262,0.0263,0.0263,0.0215,0.0213,0.0211,0,0,0,0,0,-0.0142,-0.0153,-0.014,-0.0135,-0.0094,-0.007,-0.0062,-0.0028,-0.0013,-0.0011,0.0036,0.006,0.0157,0.0149,0.0162,0.0167,0.0262,0.0263,0.0263,0.0216,0.0213,0.0211,0,0,0,0,0,0,-0.0178,-0.0147,-0.0132,-0.0133,-0.0107,-0.0062,-0.0058,-0.0034,0.0005,0.0009,0.0065,0.0079,0.0116,0.0149,0.0139,0.0199,0.0213,0.0216,0.0173,0.0171,0.0168,0.015,0.0172,0,0,0,0,0,-0.0189,-0.0189,-0.0152,-0.0153,-0.0143,-0.0101,-0.0088,-0.0065,-0.0026,-0.0009,0.0034,0.0083,0.0128,0.0154,0.0194,0.0227,0.0264,0.0239,0.0237,0.0234,0.0228,0.0294,0.0297,0.0266,0.0266,0.0266,0,0,-0.0203,-0.0187,-0.0186,-0.0161,-0.0137,-0.0129,-0.0092,-0.0077,-0.0065,-0.0003,0.0027,0.0073,0.0134,0.0172,0.0192,0.0201,0.0262,0.0235,0.0233,0.0228,0.0295,0.0298,0.0301,0.0266,0.0266,0.0266,0,0,-0.0238,-0.0217,-0.023,-0.0213,-0.0188,-0.0156,-0.0156,-0.0113,-0.0087,-0.0054,-0.0003,0.0047,0.0107,0.0158,0.0191,0.0201,0.0244,0.021,0.0189,0.0252,0.0255,0.0258,0.0303,0.031,0.0213,0.0213,0.0213,0,-0.0258,-0.0268,-0.023,-0.0239,-0.0231,-0.0173,-0.0183,-0.0145,-0.0093,-0.0068,-0.0054,0.0054,0.0102,0.0167,0.017,0.0196,0.023,0.0193,0.0248,0.0252,0.0256,0.0301,0.031,0.021,0.0211,0.0211,0.0211,0,-0.0301,-0.0309,-0.0315,-0.0303,-0.0286,-0.0286,-0.0233,-0.0204,-0.0165,-0.0123,-0.0059,0.0016,0.0082,0.0107,0.0141,0.0196,0.021,0.0234,0.0252,0.0256,0.0304,0.0314,0.0207,0.0208,0.0209,0.0209,0,0,-0.0346,-0.0347,-0.0351,-0.0361,-0.0323,-0.0316,-0.0283,-0.0236,-0.0209,-0.0147,-0.0106,-0.002,0.0026,0.0067,0.0126,0.0182,0.024,0.0211,0.0216,0.0247,0.0366,0.04,0.0414,0.0273,0.0274,0.0276,0.0385,0,-0.0393,-0.0436,-0.0413,-0.0438,-0.0451,-0.0389,-0.0361,-0.0307,-0.0244,-0.0187,-0.0091,-0.0036,0.0012,0.0044,0.011,0.0212,0.0265,0.0207,0.0364,0.0368,0.0392,0.0427,0.0473,0.0577,0.0395,0.0397,0.0398,0,-0.0443,-0.0465,-0.0509,-0.0506,-0.0504,-0.0498,-0.044,-0.0412,-0.0305,-0.0255,-0.0171,-0.0096,0.0006,0.0038,0.0211,0.0171,0.0256,0.0331,0.0338,0.0392,0.0421,0.0546,0.0602,0.0761,0.0414,0.0413,0.0412,0,-0.0504,-0.053,-0.0571,-0.0573,-0.0554,-0.0547,-0.0523,-0.0434,-0.0402,-0.0298,-0.0256,-0.0125,-0.0056,0.0074,0.0232,0.0222,0.0418,0.043,0.0539,0.0541,0.0623,0.0631,0.0847,0.054,0.0539,0.0539,0.0539,0,-0.0566,-0.0597,-0.0605,-0.063,-0.0657,-0.0614,-0.0608,-0.0554,-0.0468,-0.0423,-0.0302,-0.0228,-0.0045,0.0094,0.0226,0.0422,0.0421,0.0542,0.058,0.0607,0.0611,0.0787,0.0838,0.0543,0.0542,0.0541,0.0541,0,-0.0629,-0.0636,-0.0687,-0.0692,-0.0693,-0.0712,-0.0681,-0.0666,-0.0572,-0.0506,-0.0478,-0.0299,-0.0109,0.0079,0.0302,0.0418,0.0695,0.0656,0.0664,0.0701,0.0939,0.0983,0.1197,0.1284,0.0796,0.0797,0.0799,0,-0.0668,-0.0703,-0.0749,-0.0782,-0.079,-0.0805,-0.0808,-0.0731,-0.07,-0.0539,-0.0507,-0.0314,-0.015,0.0191,0.0431,0.068,0.0783,0.0843,0.0836,0.0972,0.1051,0.1066,0.1124,0.0926,0.0928,0.093,0.0932,0,-0.0739,-0.0757,-0.0801,-0.0873,-0.0902,-0.0929,-0.0916,-0.0903,-0.079,-0.0694,-0.0531,-0.0387,-0.0038,0.029,0.0604,0.0746,0.0964,0.0888,0.1049,0.1189,0.1203,0.1297,0.0814,0.0948,0.0947,0.0945,0.0944,0.0944,-0.0786,-0.0839,-0.0899,-0.0962,-0.1002,-0.1031,-0.1035,-0.0979,-0.0906,-0.0725,-0.0573,-0.0302,0.0178,0.0647,0.0819,0.1184,0.1117,0.1283,0.133,0.1335,0.1417,0.0954,0.1115,0.1115,0.1114,0.1113,0.1113,0,-0.0843,-0.0902,-0.098,-0.1052,-0.1108,-0.1101,-0.1088,-0.1045,-0.0941,-0.0724,-0.0522,0.003,0.05,0.0924,0.1442,0.1626,0.1657,0.1707,0.1763,0.1804,0.1432,0.1437,0.1652,0.1652,0.1652,0.1652,0.1652,0.1651,-0.0876,-0.0969,-0.1015,-0.1125,-0.1168,-0.12,-0.1187,-0.1074,-0.0905,-0.0531,-0.0195,0.0079,0.0686,0.1547,0.2023,0.2048,0.2209,0.2174,0.2256,0.2023,0.1987,0.1953,0.1974,0.2298,0.2298,0.2622,0.2626,0.2628]}],[{"header":{"parameterUnit":"m.s-1","parameterCategory":2,"la1":30.2991,"la2":30.254,"lo1":-89.0895,"lo2":-89.0444,"dy":0.0017,"dx":0.0017,"nx":28,"ny":28,"refTime":"2024-03-05T03:00:00:Z","depth":"2","parameterNumber":2,"parameterNumberName":"U-component_of_CURRENTS"},"data":[0,0,0,0,0,0,0,0,0,0,0,0,0,0,0,0,0,0,0,0,0,0,0,0,0,0,0,0,0,0,0,0,0,0,0,0,0,0,0,0,0,0,0,0,0,0,0,0,0,0,0,0,0,0,0,0,0,0,-0.1987,-0.1987,0,-0.201,-0.201,-0.201,-0.1996,-0.1996,-0.1995,-0.1995,-0.1948,-0.1947,-0.1946,0,0,0,0,0,0,0,0,0,0,0,0,0,-0.192,-0.1921,-0.1987,-0.1987,-0.1988,-0.201,-0.201,-0.201,-0.1996,-0.1996,-0.1995,-0.1995,-0.1948,-0.1947,-0.1946,0,0,0,0,0,0,0,0,0,0,0,0,0,-0.1945,-0.1922,-0.1987,-0.1985,-0.1985,-0.201,-0.201,-0.201,-0.1997,-0.1996,-0.1995,-0.1994,-0.1949,-0.1947,-0.1946,-0.1953,0,0,-0.1943,-0.1942,0,0,0,0,0,0,0,0,-0.1944,-0.1947,-0.1985,-0.1985,-0.1985,-0.2001,-0.197,-0.1989,-0.1997,-0.199,-0.1995,-0.1994,-0.1961,-0.1959,-0.1963,-0.1951,-0.1949,-0.1942,-0.1942,-0.1941,-0.1941,0,0,0,0,0,0,0,-0.1942,-0.1946,-0.1994,-0.1985,-0.1986,-0.198,-0.1983,-0.1973,-0.1976,-0.1991,-0.199,-0.1996,-0.196,-0.1964,-0.1962,-0.1948,-0.1942,-0.1941,-0.1941,-0.194,-0.1956,-0.1957,0,0,0,0,0,0,-0.1945,-0.1945,-0.1993,-0.1995,-0.1965,-0.1982,-0.1985,-0.1995,-0.1978,-0.1976,-0.1997,-0.1996,-0.1967,-0.1963,-0.196,-0.1991,-0.1941,-0.194,-0.1939,-0.1955,-0.1957,-0.1958,0,0,0,0,0,0,-0.1943,-0.1949,-0.1992,-0.1971,-0.1977,-0.1984,-0.1996,-0.1996,-0.1999,-0.1984,-0.198,-0.2,-0.1966,-0.1961,-0.1963,-0.1988,-0.1939,-0.1938,-0.1954,-0.1956,-0.1957,-0.2037,0,0,0,0,0,0,-0.1942,-0.1949,-0.1953,-0.1972,-0.1978,-0.2013,-0.1997,-0.1997,-0.2005,-0.2003,-0.1985,-0.198,-0.1965,-0.1965,-0.1962,-0.1985,-0.1937,-0.1952,-0.1955,-0.1957,-0.2033,-0.2042,-0.2049,0,0,0,0,0,-0.1939,-0.1951,-0.1953,-0.1959,-0.1986,-0.2014,-0.2017,-0.2017,-0.2006,-0.2015,-0.2006,-0.1981,-0.1976,-0.1965,-0.1961,-0.1985,-0.1951,-0.1954,-0.1956,-0.203,-0.204,-0.2049,0,0,0,0,0,0,-0.1922,-0.1951,-0.1954,-0.1973,-0.1995,-0.2012,-0.2017,-0.202,-0.2021,-0.2015,-0.1995,-0.199,-0.2001,-0.1981,-0.1969,-0.1996,-0.196,-0.1962,-0.2017,-0.2026,-0.2034,-0.2034,-0.1936,0,0,0,0,0,-0.1922,-0.1936,-0.1967,-0.1979,-0.1991,-0.2004,-0.2013,-0.202,-0.2027,-0.2026,-0.2016,-0.2007,-0.201,-0.2008,-0.2002,-0.2015,-0.1992,-0.2028,-0.2035,-0.2042,-0.204,-0.2039,-0.2046,-0.1966,-0.1966,-0.1966,0,0,-0.1916,-0.1935,-0.1941,-0.1976,-0.1987,-0.2022,-0.2007,-0.2027,-0.2056,-0.202,-0.2042,-0.2031,-0.2019,-0.2039,-0.2042,-0.2024,-0.2054,-0.2045,-0.2051,-0.2045,-0.2042,-0.205,-0.2057,-0.1968,-0.1968,-0.1967,0,0,-0.1922,-0.1932,-0.1952,-0.1978,-0.2009,-0.2026,-0.2035,-0.2061,-0.2069,-0.2094,-0.208,-0.2086,-0.2082,-0.2089,-0.209,-0.2135,-0.2094,-0.2131,-0.2172,-0.2171,-0.2177,-0.2183,-0.2167,-0.2171,-0.2136,-0.2136,-0.2136,0,-0.1913,-0.1949,-0.1961,-0.1996,-0.2021,-0.2033,-0.2071,-0.2091,-0.2113,-0.2123,-0.2107,-0.2121,-0.2111,-0.2144,-0.2163,-0.2154,-0.2136,-0.2139,-0.2181,-0.2186,-0.219,-0.2173,-0.2175,-0.214,-0.214,-0.2139,-0.2139,0,-0.1944,-0.1977,-0.1991,-0.2042,-0.2071,-0.2103,-0.2141,-0.2162,-0.2169,-0.2185,-0.221,-0.2203,-0.2206,-0.2214,-0.2203,-0.2235,-0.2207,-0.2192,-0.2158,-0.2203,-0.2182,-0.2183,-0.2146,-0.2144,-0.2143,-0.2142,0,0,-0.1909,-0.1997,-0.2,-0.2033,-0.21,-0.2122,-0.2178,-0.2226,-0.2248,-0.2268,-0.2292,-0.2314,-0.2296,-0.2296,-0.2285,-0.2291,-0.2311,-0.2256,-0.2254,-0.2241,-0.2296,-0.2231,-0.2226,-0.2301,-0.2301,-0.2302,-0.2271,0,-0.1929,-0.2,-0.2044,-0.2109,-0.2148,-0.2189,-0.224,-0.2282,-0.2302,-0.2326,-0.2333,-0.2346,-0.2333,-0.233,-0.234,-0.2312,-0.2317,-0.232,-0.2253,-0.2251,-0.2189,-0.2226,-0.2058,-0.2012,-0.2272,-0.2272,-0.2272,0,-0.1943,-0.1992,-0.2062,-0.2146,-0.2165,-0.2207,-0.2268,-0.2313,-0.236,-0.2375,-0.2394,-0.2388,-0.2407,-0.238,-0.2371,-0.237,-0.234,-0.232,-0.2318,-0.2227,-0.2188,-0.2008,-0.2004,-0.2274,-0.2273,-0.2273,-0.2273,0,-0.1903,-0.1998,-0.205,-0.2081,-0.218,-0.2212,-0.2256,-0.2317,-0.2347,-0.2391,-0.2403,-0.2428,-0.2419,-0.2407,-0.2364,-0.2367,-0.2333,-0.2331,-0.2248,-0.2243,-0.207,-0.2048,-0.2324,-0.2324,-0.2324,-0.2324,-0.2324,0,-0.1904,-0.1941,-0.2032,-0.206,-0.211,-0.2185,-0.2232,-0.228,-0.234,-0.2369,-0.2409,-0.2419,-0.2422,-0.2401,-0.2373,-0.2304,-0.2338,-0.2256,-0.2234,-0.2093,-0.2075,-0.2275,-0.227,-0.2323,-0.2323,-0.2323,-0.2324,0,-0.1851,-0.1917,-0.1972,-0.2069,-0.2093,-0.212,-0.2206,-0.2241,-0.2305,-0.234,-0.2353,-0.2401,-0.2379,-0.2364,-0.233,-0.2295,-0.225,-0.2215,-0.2043,-0.2002,-0.2161,-0.2161,-0.2136,-0.2133,-0.2131,-0.2129,-0.2128,0,-0.1832,-0.1857,-0.1946,-0.197,-0.2012,-0.2065,-0.2109,-0.2202,-0.2242,-0.232,-0.233,-0.2333,-0.2314,-0.2245,-0.2177,-0.2109,-0.2178,-0.193,-0.1918,-0.2163,-0.2144,-0.2147,-0.2149,-0.1719,-0.1715,-0.1711,-0.1708,0,-0.1781,-0.1809,-0.185,-0.1897,-0.1941,-0.1984,-0.2052,-0.2077,-0.2182,-0.221,-0.2234,-0.2221,-0.2177,-0.2028,-0.1946,-0.1891,-0.1933,-0.1851,-0.2138,-0.1801,-0.177,-0.1752,-0.1768,-0.1674,-0.1677,-0.1679,-0.1681,-0.1683,-0.1718,-0.1724,-0.1769,-0.1803,-0.185,-0.1867,-0.1861,-0.1938,-0.1955,-0.1957,-0.2052,-0.1967,-0.1965,-0.174,-0.1662,-0.1592,-0.1724,-0.1653,-0.1665,-0.1681,-0.1646,-0.1614,-0.1481,-0.1483,-0.1485,-0.1487,-0.1488,0,-0.1625,-0.1642,-0.1672,-0.1698,-0.1693,-0.1754,-0.1794,-0.1746,-0.1717,-0.1749,-0.1734,-0.1536,-0.1451,-0.1446,-0.1289,-0.1279,-0.1266,-0.1232,-0.1212,-0.1246,-0.1277,-0.1222,-0.0944,-0.0942,-0.0941,-0.094,0,0,-0.1573,-0.1555,-0.157,-0.1516,-0.1536,-0.1465,-0.1451,-0.1396,-0.1377,-0.1267,-0.1223,-0.1334,-0.1384,-0.1151,-0.1115,-0.1001,-0.111,-0.0952,-0.1385,-0.1393,-0.1421,-0.1512,-0.1466,0,0,0,0,0]},{"header":{"parameterUnit":"m.s-1","parameterCategory":2,"la1":30.2991,"la2":30.254,"lo1":-89.0895,"lo2":-89.0444,"dy":0.0017,"dx":0.0017,"nx":28,"ny":28,"refTime":"2024-03-05T03:00:00:Z","depth":"2","parameterNumber":3,"parameterNumberName":"V-component_of_CURRENTS"},"data":[0,0,0,0,0,0,0,0,0,0,0,0,0,0,0,0,0,0,0,0,0,0,0,0,0,0,0,0,0,0,0,0,0,0,0,0,0,0,0,0,0,0,0,0,0,0,0,0,0,0,0,0,0,0,0,0,0,0,-0.0164,-0.0163,0,-0.0091,-0.009,-0.0089,-0.0038,-0.0038,-0.0038,-0.0038,0.0069,0.0071,0.0074,0,0,0,0,0,0,0,0,0,0,0,0,0,-0.0215,-0.0214,-0.0164,-0.0163,-0.0162,-0.0092,-0.009,-0.0089,-0.0038,-0.0038,-0.0038,-0.0038,0.0068,0.0071,0.0074,0,0,0,0,0,0,0,0,0,0,0,0,0,-0.0171,-0.0214,-0.0164,-0.013,-0.0126,-0.0092,-0.009,-0.0089,-0.0039,-0.0038,-0.0038,-0.0038,0.0067,0.007,0.0074,0.0092,0,0,0.0086,0.0088,0,0,0,0,0,0,0,0,-0.0173,-0.0169,-0.0136,-0.0132,-0.0128,-0.0075,-0.0069,-0.0027,-0.0039,-0.007,-0.0038,-0.0037,0.0022,0.003,0.0045,0.0097,0.0101,0.0087,0.0089,0.0091,0.0092,0,0,0,0,0,0,0,-0.0177,-0.0171,-0.0133,-0.0135,-0.013,-0.0103,-0.0097,-0.0061,-0.0025,-0.0067,-0.0064,-0.0059,0.0025,0.0041,0.0048,0.0103,0.0087,0.009,0.0092,0.0094,0.0195,0.0195,0,0,0,0,0,0,-0.0192,-0.0175,-0.0136,-0.0131,-0.0152,-0.0103,-0.0096,-0.0091,-0.0026,-0.0016,-0.0059,-0.0057,0.0034,0.0043,0.0052,0.0085,0.0091,0.0094,0.0097,0.0195,0.0195,0.0195,0,0,0,0,0,0,-0.0193,-0.0189,-0.0139,-0.0153,-0.0145,-0.0103,-0.0098,-0.009,-0.0074,-0.002,-0.001,-0.0052,0.0035,0.0046,0.0087,0.0089,0.0096,0.01,0.0194,0.0195,0.0195,0.0146,0,0,0,0,0,0,-0.0195,-0.019,-0.0194,-0.0154,-0.0144,-0.0126,-0.0098,-0.0089,-0.0072,-0.0068,-0.0011,-0.0,0.0036,0.0081,0.0091,0.0095,0.0103,0.0194,0.0195,0.0195,0.0147,0.0145,0.0143,0,0,0,0,0,-0.0197,-0.0207,-0.0194,-0.019,-0.015,-0.0127,-0.0119,-0.0087,-0.0073,-0.007,-0.0025,-0.0002,0.0092,0.0084,0.0096,0.0101,0.0194,0.0194,0.0195,0.0148,0.0145,0.0143,0,0,0,0,0,0,-0.0231,-0.0201,-0.0187,-0.0187,-0.0162,-0.0119,-0.0115,-0.0092,-0.0055,-0.005,0.0003,0.0017,0.0052,0.0084,0.0074,0.0133,0.0146,0.0149,0.0107,0.0104,0.0102,0.0084,0.0106,0,0,0,0,0,-0.0241,-0.024,-0.0205,-0.0206,-0.0196,-0.0156,-0.0143,-0.0122,-0.0084,-0.0068,-0.0026,0.0021,0.0064,0.0089,0.0127,0.016,0.0196,0.0172,0.0169,0.0167,0.0161,0.0224,0.0226,0.0198,0.0198,0.0198,0,0,-0.0254,-0.0239,-0.0237,-0.0213,-0.0191,-0.0184,-0.0147,-0.0133,-0.0121,-0.0062,-0.0033,0.0011,0.007,0.0107,0.0126,0.0135,0.0193,0.0168,0.0165,0.0161,0.0225,0.0228,0.023,0.0198,0.0198,0.0198,0,0,-0.0287,-0.0266,-0.0279,-0.0263,-0.0238,-0.0209,-0.0208,-0.0167,-0.0142,-0.011,-0.0062,-0.0014,0.0044,0.0093,0.0125,0.0134,0.0176,0.0143,0.0123,0.0183,0.0186,0.0189,0.0232,0.0239,0.0146,0.0146,0.0146,0,-0.0306,-0.0316,-0.0279,-0.0288,-0.0281,-0.0225,-0.0235,-0.0199,-0.0149,-0.0126,-0.0111,-0.0007,0.0039,0.01,0.0103,0.0128,0.0162,0.0126,0.0179,0.0183,0.0187,0.0231,0.0239,0.0144,0.0144,0.0144,0.0145,0,-0.0347,-0.0355,-0.0361,-0.0351,-0.0335,-0.0335,-0.0285,-0.0257,-0.0219,-0.0179,-0.0118,-0.0045,0.0017,0.0042,0.0076,0.0128,0.0142,0.0165,0.0182,0.0187,0.0233,0.0242,0.0141,0.0141,0.0142,0.0143,0,0,-0.039,-0.0393,-0.0395,-0.0407,-0.0371,-0.0365,-0.0334,-0.0291,-0.0266,-0.0205,-0.0167,-0.0083,-0.0038,0.0001,0.0059,0.0113,0.0169,0.0143,0.0147,0.0177,0.029,0.0321,0.0334,0.02,0.0201,0.0203,0.0309,0,-0.0435,-0.0479,-0.0456,-0.0482,-0.0496,-0.0437,-0.0412,-0.0361,-0.0301,-0.0247,-0.0154,-0.0101,-0.0053,-0.0022,0.0042,0.0141,0.0192,0.0137,0.0289,0.0293,0.0313,0.0347,0.0286,0.0378,0.0319,0.0321,0.0322,0,-0.0484,-0.0506,-0.0551,-0.0551,-0.0549,-0.0545,-0.0491,-0.0465,-0.0364,-0.0315,-0.0234,-0.0161,-0.0063,-0.003,0.0138,0.0099,0.0182,0.0256,0.0263,0.0314,0.0342,0.0367,0.0398,0.0338,0.0337,0.0336,0.0335,0,-0.0543,-0.057,-0.0612,-0.0615,-0.0599,-0.0593,-0.0571,-0.0487,-0.0457,-0.0358,-0.0318,-0.0192,-0.0123,0.0002,0.0157,0.0148,0.0338,0.035,0.0454,0.0456,0.0447,0.0446,0.0456,0.0456,0.0455,0.0455,0.0455,0,-0.0604,-0.0635,-0.0644,-0.0669,-0.0698,-0.0658,-0.0654,-0.0603,-0.0522,-0.0481,-0.0363,-0.0293,-0.0113,0.0022,0.0151,0.034,0.034,0.0457,0.0494,0.0428,0.0425,0.0423,0.0417,0.0459,0.0458,0.0457,0.0457,0,-0.0665,-0.0673,-0.0724,-0.0731,-0.0733,-0.0753,-0.0725,-0.0713,-0.0623,-0.0561,-0.0534,-0.0361,-0.0177,0.0006,0.0223,0.0335,0.0506,0.0565,0.0469,0.0493,0.058,0.0571,0.0695,0.0697,0.0699,0.07,0.0702,0,-0.0702,-0.0737,-0.0784,-0.0818,-0.0827,-0.0843,-0.0847,-0.0775,-0.0746,-0.0593,-0.0563,-0.0377,-0.0221,0.011,0.0325,0.0562,0.0564,0.0635,0.0614,0.0585,0.0609,0.0597,0.0586,0.0577,0.0578,0.0578,0.0578,0,-0.0772,-0.079,-0.0834,-0.0905,-0.0935,-0.0963,-0.0953,-0.0941,-0.0834,-0.0743,-0.0588,-0.0451,-0.0132,0.0127,0.0424,0.0547,0.0595,0.0647,0.0661,0.0526,0.0484,0.0503,0.0495,0.0579,0.0579,0.0579,0.0579,0.0579,-0.0819,-0.0871,-0.093,-0.0992,-0.1032,-0.1062,-0.1068,-0.1017,-0.0948,-0.0783,-0.0638,-0.0408,-0.015,0.0267,0.0479,0.0654,0.0658,0.069,0.0685,0.0682,0.0649,0.0613,0.0725,0.0726,0.0726,0.0727,0.0727,0,-0.0875,-0.0932,-0.1008,-0.108,-0.1135,-0.113,-0.1119,-0.108,-0.0983,-0.0807,-0.0622,-0.0339,-0.0034,0.0227,0.0511,0.07,0.0665,0.0714,0.0631,0.0628,0.0626,0.0588,0.0649,0.065,0.065,0.0651,0,0,-0.0907,-0.0998,-0.1042,-0.1149,-0.1192,-0.1225,-0.1213,-0.1111,-0.0974,-0.0785,-0.0608,-0.0362,-0.0035,0.0156,0.0384,0.0529,0.0527,0.0528,0.0566,0.0437,0.0434,0.0584,0.0519,0,0,0,0,0]}],[{"header":{"parameterUnit":"m.s-1","parameterCategory":2,"la1":30.2991,"la2":30.254,"lo1":-89.0895,"lo2":-89.0444,"dy":0.0017,"dx":0.0017,"nx":28,"ny":28,"refTime":"2024-03-05T03:00:00:Z","depth":"4","parameterNumber":2,"parameterNumberName":"U-component_of_CURRENTS"},"data":[0,0,0,0,0,0,0,0,0,0,0,0,0,0,0,0,0,0,0,0,0,0,0,0,0,0,0,0,0,0,0,0,0,0,0,0,0,0,0,0,0,0,0,0,0,0,0,0,0,0,0,0,0,0,0,0,0,0,-0.1334,-0.1334,0,-0.1383,-0.1384,-0.1384,-0.1414,-0.1414,-0.1415,-0.1415,-0.1434,-0.1434,-0.1434,0,0,0,0,0,0,0,0,0,0,0,0,0,-0.1259,-0.126,-0.1334,-0.1335,-0.1335,-0.1383,-0.1384,-0.1384,-0.1414,-0.1414,-0.1415,-0.1415,-0.1434,-0.1434,-0.1434,0,0,0,0,0,0,0,0,0,0,0,0,0,-0.1297,-0.1261,-0.1334,-0.1357,-0.136,-0.1383,-0.1384,-0.1385,-0.1414,-0.1414,-0.1415,-0.1415,-0.1434,-0.1434,-0.1434,-0.1428,0,0,-0.1435,-0.1436,0,0,0,0,0,0,0,0,-0.1295,-0.1299,-0.1353,-0.1355,-0.1358,-0.1394,-0.1365,-0.1398,-0.1414,-0.1392,-0.1415,-0.1415,-0.1418,-0.142,-0.1427,-0.1429,-0.143,-0.1435,-0.1436,-0.1436,-0.1436,0,0,0,0,0,0,0,-0.1292,-0.1298,-0.1352,-0.1354,-0.1357,-0.1363,-0.1369,-0.1371,-0.14,-0.1394,-0.1396,-0.1404,-0.142,-0.1426,-0.1427,-0.143,-0.1435,-0.1436,-0.1436,-0.1436,-0.1495,-0.1497,0,0,0,0,0,0,-0.1289,-0.1295,-0.135,-0.1354,-0.1329,-0.1364,-0.1371,-0.1381,-0.1401,-0.1405,-0.1404,-0.1405,-0.1425,-0.1427,-0.1428,-0.1492,-0.1436,-0.1436,-0.1436,-0.1494,-0.1496,-0.1497,0,0,0,0,0,0,-0.1287,-0.1294,-0.1348,-0.1326,-0.1334,-0.1365,-0.1377,-0.1382,-0.1411,-0.1409,-0.1413,-0.1431,-0.1426,-0.1428,-0.1458,-0.1491,-0.1436,-0.1437,-0.1493,-0.1495,-0.1497,-0.1576,0,0,0,0,0,0,-0.1285,-0.1293,-0.131,-0.1326,-0.1335,-0.1379,-0.1377,-0.1383,-0.1415,-0.1418,-0.1433,-0.1434,-0.1426,-0.1458,-0.1458,-0.149,-0.1437,-0.1491,-0.1493,-0.1496,-0.1572,-0.158,-0.1588,0,0,0,0,0,-0.1282,-0.13,-0.131,-0.1318,-0.1354,-0.1381,-0.1386,-0.1408,-0.1416,-0.1435,-0.145,-0.1435,-0.1474,-0.1459,-0.146,-0.1492,-0.149,-0.1493,-0.1496,-0.1568,-0.1579,-0.1588,0,0,0,0,0,0,-0.1277,-0.1306,-0.1317,-0.1344,-0.1369,-0.1387,-0.1407,-0.1421,-0.1449,-0.1457,-0.1453,-0.1455,-0.1493,-0.1481,-0.1465,-0.1516,-0.1479,-0.1482,-0.1533,-0.1543,-0.1551,-0.1548,-0.1437,0,0,0,0,0,-0.1284,-0.1305,-0.1332,-0.1355,-0.1369,-0.1393,-0.141,-0.1428,-0.1448,-0.1462,-0.1475,-0.1487,-0.1502,-0.1514,-0.1521,-0.155,-0.1528,-0.157,-0.1579,-0.1586,-0.1583,-0.1587,-0.1595,-0.1507,-0.1507,-0.1507,0,0,-0.1289,-0.1307,-0.1321,-0.1356,-0.1376,-0.1408,-0.1405,-0.144,-0.1475,-0.1458,-0.1511,-0.1516,-0.1515,-0.1552,-0.1567,-0.155,-0.16,-0.159,-0.1596,-0.1589,-0.1591,-0.1599,-0.1607,-0.1509,-0.1509,-0.1509,0,0,-0.1302,-0.1326,-0.1348,-0.1375,-0.1413,-0.1431,-0.1447,-0.1482,-0.1508,-0.1553,-0.1553,-0.158,-0.1603,-0.1614,-0.1619,-0.1675,-0.1642,-0.1679,-0.1722,-0.1727,-0.1734,-0.174,-0.1725,-0.1729,-0.1686,-0.1686,-0.1686,0,-0.1308,-0.134,-0.136,-0.139,-0.1419,-0.1445,-0.1481,-0.1512,-0.1557,-0.1579,-0.1581,-0.1628,-0.1632,-0.1673,-0.1697,-0.1694,-0.1682,-0.1687,-0.1737,-0.1743,-0.1747,-0.1731,-0.1735,-0.169,-0.169,-0.1689,-0.1689,0,-0.1333,-0.1372,-0.1388,-0.1437,-0.147,-0.1506,-0.1549,-0.1589,-0.1622,-0.1647,-0.17,-0.1711,-0.1735,-0.1748,-0.1742,-0.1784,-0.176,-0.1746,-0.1712,-0.1761,-0.1741,-0.1743,-0.1696,-0.1695,-0.1693,-0.1692,0,0,-0.1311,-0.1391,-0.1399,-0.1431,-0.1501,-0.1524,-0.1592,-0.1648,-0.1686,-0.1734,-0.1776,-0.1818,-0.1821,-0.1826,-0.1827,-0.1838,-0.1868,-0.1813,-0.1811,-0.1798,-0.1867,-0.1738,-0.1727,-0.1865,-0.1866,-0.1867,-0.184,0,-0.1327,-0.1386,-0.143,-0.1496,-0.153,-0.1586,-0.1643,-0.17,-0.1743,-0.1789,-0.1817,-0.1853,-0.1852,-0.1867,-0.1883,-0.1867,-0.1877,-0.1875,-0.1821,-0.1819,-0.1698,-0.1726,-0.1869,-0.1841,-0.1841,-0.1842,-0.1842,0,-0.133,-0.1373,-0.1439,-0.1525,-0.1546,-0.1598,-0.1681,-0.1732,-0.1804,-0.1839,-0.1883,-0.1896,-0.1933,-0.1917,-0.1924,-0.1924,-0.1904,-0.1889,-0.1887,-0.1737,-0.1694,-0.1781,-0.1845,-0.1845,-0.1844,-0.1844,-0.1844,0,-0.1283,-0.1376,-0.1428,-0.1459,-0.1562,-0.161,-0.1666,-0.1747,-0.1788,-0.1864,-0.1891,-0.1937,-0.195,-0.1949,-0.1924,-0.193,-0.1907,-0.1907,-0.1774,-0.1764,-0.1853,-0.1847,-0.1909,-0.1909,-0.1909,-0.1909,-0.1909,0,-0.1265,-0.1309,-0.1415,-0.1442,-0.1508,-0.1589,-0.1659,-0.1721,-0.1802,-0.1837,-0.1905,-0.1921,-0.1958,-0.1948,-0.1931,-0.1843,-0.1912,-0.1775,-0.1748,-0.1887,-0.1886,-0.1854,-0.1849,-0.1908,-0.1908,-0.1908,-0.1909,0,-0.1199,-0.1273,-0.1334,-0.1449,-0.1486,-0.1528,-0.1645,-0.1685,-0.1775,-0.1819,-0.1843,-0.1908,-0.1891,-0.1899,-0.1882,-0.1825,-0.1773,-0.1727,-0.1863,-0.1845,-0.1629,-0.1627,-0.1579,-0.1574,-0.157,-0.1566,-0.1563,0,-0.1169,-0.1195,-0.1312,-0.1349,-0.1407,-0.1487,-0.1541,-0.1655,-0.1694,-0.1788,-0.1792,-0.1815,-0.1838,-0.1701,-0.1736,-0.1679,-0.1661,-0.1628,-0.1643,-0.1616,-0.1595,-0.16,-0.1604,-0.1557,-0.1556,-0.1555,-0.1554,0,-0.1102,-0.1152,-0.1199,-0.1269,-0.1334,-0.139,-0.1475,-0.149,-0.1606,-0.1709,-0.1685,-0.1664,-0.1635,-0.161,-0.1565,-0.1535,-0.1649,-0.1586,-0.1595,-0.1609,-0.1589,-0.1574,-0.1583,-0.154,-0.1542,-0.1543,-0.1544,0,-0.1045,-0.1055,-0.1116,-0.1165,-0.124,-0.1258,-0.1323,-0.1366,-0.1411,-0.1535,-0.1521,-0.1549,-0.1613,-0.1533,-0.1499,-0.1447,-0.1434,-0.1396,-0.1414,-0.143,-0.1393,-0.1347,-0.1194,0,0,0,0,0,-0.0975,-0.0969,-0.1009,-0.105,-0.1121,-0.1152,-0.126,-0.133,-0.1451,-0.1394,-0.1453,-0.1423,-0.137,-0.1391,-0.1303,-0.1428,-0.1435,-0.1321,-0.14,-0.1462,-0.1478,-0.1448,0,0,0,0,0,0,-0.0927,-0.095,-0.096,-0.0933,-0.0942,-0.0993,-0.1048,-0.1137,-0.1121,-0.1251,-0.1226,-0.1329,-0.1293,-0.138,-0.1266,-0.1272,-0.1292,-0.1357,-0.1353,-0.1453,-0.1467,-0.148,-0.1455,0,0,0,0,0]},{"header":{"parameterUnit":"m.s-1","parameterCategory":2,"la1":30.2991,"la2":30.254,"lo1":-89.0895,"lo2":-89.0444,"dy":0.0017,"dx":0.0017,"nx":28,"ny":28,"refTime":"2024-03-05T03:00:00:Z","depth":"4","parameterNumber":3,"parameterNumberName":"V-component_of_CURRENTS"},"data":[0,0,0,0,0,0,0,0,0,0,0,0,0,0,0,0,0,0,0,0,0,0,0,0,0,0,0,0,0,0,0,0,0,0,0,0,0,0,0,0,0,0,0,0,0,0,0,0,0,0,0,0,0,0,0,0,0,0,-0.0177,-0.0177,0,-0.013,-0.013,-0.0129,-0.0098,-0.0098,-0.0098,-0.0098,-0.0019,-0.0017,-0.0015,0,0,0,0,0,0,0,0,0,0,0,0,0,-0.0209,-0.0208,-0.0177,-0.0177,-0.0176,-0.013,-0.013,-0.0129,-0.0098,-0.0098,-0.0098,-0.0098,-0.002,-0.0018,-0.0015,0,0,0,0,0,0,0,0,0,0,0,0,0,-0.018,-0.0208,-0.0177,-0.0156,-0.0154,-0.0131,-0.013,-0.0129,-0.0098,-0.0098,-0.0098,-0.0098,-0.0021,-0.0018,-0.0015,0.0002,0,0,-0.0006,-0.0004,0,0,0,0,0,0,0,0,-0.0182,-0.0179,-0.016,-0.0158,-0.0155,-0.0121,-0.0112,-0.0084,-0.0098,-0.0118,-0.0098,-0.0098,-0.0052,-0.0046,-0.0036,0.0006,0.0009,-0.0005,-0.0003,-0.0002,-0.0001,0,0,0,0,0,0,0,-0.0184,-0.0181,-0.0157,-0.016,-0.0157,-0.0139,-0.0135,-0.0106,-0.0084,-0.0116,-0.0114,-0.0112,-0.005,-0.0039,-0.0034,0.001,-0.0005,-0.0003,-0.0001,0.0,0.0084,0.0084,0,0,0,0,0,0,-0.0195,-0.0183,-0.0159,-0.0156,-0.017,-0.0139,-0.0134,-0.0131,-0.0085,-0.0079,-0.0112,-0.011,-0.0044,-0.0037,-0.0031,-0.0007,-0.0002,0.0001,0.0002,0.0083,0.0084,0.0084,0,0,0,0,0,0,-0.0195,-0.0193,-0.016,-0.0169,-0.0164,-0.0139,-0.0135,-0.013,-0.0121,-0.0082,-0.0075,-0.0108,-0.0044,-0.0035,-0.0003,-0.0003,0.0002,0.0005,0.0083,0.0083,0.0084,0.0041,0,0,0,0,0,0,-0.0196,-0.0193,-0.0197,-0.017,-0.0164,-0.0153,-0.0135,-0.013,-0.012,-0.0118,-0.0077,-0.0069,-0.0043,-0.0008,-0.0,0.0001,0.0007,0.0082,0.0083,0.0084,0.0042,0.004,0.0038,0,0,0,0,0,-0.0198,-0.0204,-0.0198,-0.0195,-0.017,-0.0153,-0.0148,-0.0129,-0.012,-0.0119,-0.0086,-0.007,0.0002,-0.0005,0.0004,0.0006,0.0082,0.0083,0.0084,0.0043,0.004,0.0038,0,0,0,0,0,0,-0.022,-0.0201,-0.0194,-0.0194,-0.0178,-0.0149,-0.0148,-0.0133,-0.0106,-0.0104,-0.0065,-0.0055,-0.0029,-0.0003,-0.0012,0.0033,0.0044,0.0047,0.001,0.0008,0.0007,-0.001,0.001,0,0,0,0,0,-0.0228,-0.0229,-0.0205,-0.0207,-0.0201,-0.0175,-0.0167,-0.0153,-0.0126,-0.0115,-0.0085,-0.005,-0.0018,0.0001,0.003,0.0056,0.0084,0.0065,0.0063,0.0061,0.0055,0.0105,0.0107,0.0087,0.0087,0.0087,0,0,-0.0237,-0.0228,-0.0228,-0.0212,-0.0198,-0.0196,-0.0169,-0.0161,-0.0156,-0.011,-0.0093,-0.0058,-0.0013,0.0014,0.0029,0.0036,0.0081,0.0062,0.006,0.0055,0.0106,0.0108,0.0109,0.0087,0.0087,0.0087,0,0,-0.026,-0.0248,-0.0258,-0.0249,-0.0234,-0.0214,-0.0215,-0.0187,-0.0171,-0.015,-0.0114,-0.0077,-0.0033,0.0003,0.0027,0.0035,0.0067,0.0044,0.0025,0.0073,0.0075,0.0077,0.011,0.0115,0.0046,0.0046,0.0046,0,-0.0274,-0.0284,-0.0258,-0.0267,-0.0266,-0.0227,-0.0238,-0.0214,-0.0179,-0.0165,-0.0152,-0.0075,-0.0038,0.0006,0.0009,0.003,0.0057,0.0027,0.007,0.0072,0.0075,0.0108,0.0115,0.0044,0.0044,0.0045,0.0045,0,-0.0304,-0.0315,-0.032,-0.0318,-0.0309,-0.0313,-0.0279,-0.0263,-0.0238,-0.021,-0.0167,-0.0108,-0.0062,-0.0041,-0.0014,0.0026,0.0037,0.0057,0.0071,0.0074,0.0109,0.0117,0.0041,0.0042,0.0043,0.0043,0,0,-0.033,-0.0341,-0.0345,-0.036,-0.034,-0.0338,-0.0322,-0.0297,-0.0284,-0.0238,-0.0216,-0.0149,-0.0113,-0.0083,-0.0036,0.001,0.0053,0.0036,0.004,0.006,0.0148,0.0132,0.0138,0.008,0.0081,0.0082,0.0163,0,-0.0365,-0.0403,-0.0392,-0.0422,-0.0437,-0.04,-0.0389,-0.0357,-0.0317,-0.0282,-0.0209,-0.0171,-0.0129,-0.0104,-0.0052,0.003,0.0071,0.0028,0.015,0.0153,0.0131,0.0146,0.0086,0.0168,0.017,0.0171,0.0172,0,-0.0399,-0.0422,-0.0465,-0.048,-0.0482,-0.0488,-0.0463,-0.0449,-0.0381,-0.0346,-0.0286,-0.0228,-0.015,-0.0118,0.0017,-0.0012,0.0057,0.0119,0.0125,0.0128,0.015,0.0168,0.0186,0.0185,0.0184,0.0183,0.0182,0,-0.0438,-0.0472,-0.0513,-0.052,-0.0525,-0.0531,-0.0524,-0.0472,-0.0456,-0.0386,-0.0358,-0.026,-0.0205,-0.0101,0.0028,0.0024,0.0174,0.0188,0.0237,0.0237,0.0246,0.0243,0.0274,0.0274,0.0273,0.0273,0.0273,0,-0.0478,-0.0511,-0.054,-0.0563,-0.0602,-0.0582,-0.0597,-0.0566,-0.0515,-0.049,-0.0399,-0.0347,-0.0198,-0.0091,0.0018,0.015,0.017,0.0233,0.0259,0.0225,0.0219,0.0251,0.0247,0.0276,0.0275,0.0275,0.0274,0,-0.0511,-0.0532,-0.0586,-0.0615,-0.0626,-0.0654,-0.0657,-0.0656,-0.0598,-0.0559,-0.0538,-0.0406,-0.0264,-0.0117,0.0061,0.0134,0.0264,0.0303,0.0247,0.0269,0.0294,0.0287,0.0361,0.0361,0.0361,0.0361,0.0361,0,-0.0532,-0.0565,-0.0632,-0.0671,-0.0691,-0.0725,-0.0742,-0.0704,-0.0687,-0.0586,-0.0562,-0.0426,-0.0326,-0.0084,0.0062,0.0258,0.0283,0.0336,0.0319,0.0286,0.0305,0.0298,0.0291,0.0362,0.0362,0.0362,0.0362,0,-0.0571,-0.0601,-0.0645,-0.0723,-0.0768,-0.0808,-0.0819,-0.0809,-0.0745,-0.0698,-0.0563,-0.0426,-0.0269,-0.0085,0.0065,0.0207,0.0295,0.0338,0.0338,0.0323,0.0288,0.0305,0.0298,0.0362,0.0362,0.0362,0.0362,0,-0.0598,-0.064,-0.0703,-0.0766,-0.0828,-0.0861,-0.0868,-0.0824,-0.0792,-0.066,-0.0618,-0.043,-0.0315,-0.0111,0.0032,0.0164,0.0192,0.0222,0.0229,0.023,0.0165,0.0099,0.0139,0,0,0,0,0,-0.0617,-0.0666,-0.0736,-0.0804,-0.0864,-0.0892,-0.0901,-0.0886,-0.082,-0.073,-0.0663,-0.0507,-0.0271,-0.0163,-0.0034,0.001,0.0192,0.0162,0.0223,0.0364,0.0364,0.0308,0,0,0,0,0,0,-0.0632,-0.0702,-0.0738,-0.0815,-0.0862,-0.0916,-0.0924,-0.0885,-0.0815,-0.0728,-0.0598,-0.0496,-0.0269,-0.0344,-0.0037,0.0005,0.0055,0.0284,0.0286,0.0365,0.0364,0.0364,0.0306,0,0,0,0,0]}]]